Location: Possagno
(45.8500°N, 11.8667°E)
Time: 20:06:54
(UTC+00:00)

Resurs 1-4 Rocket - Pass Details

Date: 04 October 2020
Orbit: 800 x 813 km, 98.6° (Epoch: 27 October)

Event Time Altitude Azimuth Distance (km) Brightness Sun altitude
Rises 01:00:29 0° 13° (NNE) 3,333 6.0 -41.2°
Reaches altitude 10° 01:02:50 10° 13° (NNE) 2,400 5.1 -40.9°
Enters shadow 01:03:55 17° 12° (NNE) 1,977 4.6 -40.8°
